Location: Buchberg
(46.9333°N, 15.8500°E)
Time: 19:23:26
(UTC+00:00)

SL-16 R/B - Pass Details

Date: 14 July 2020
Orbit: 985 x 1006 km, 99.5° (Epoch: 05 August)

Event Time Altitude Azimuth Distance (km) Brightness Sun altitude
Exits shadow 00:11:55 19° 149° (SSE) 2,194 4.0 -19.7°
Maximum altitude 00:16:33 69° 70° (ENE) 1,072 2.8 -19.4°
Drops below altitude 10° 00:22:47 10° 349° (N) 2,793 5.8 -19.1°
Sets 00:25:17 0° 347° (NNW) 3,748 6.5 -18.9°
